{"data":{"norad_id":63198,"intl_designator":"2025-048R","name":"STARLINK-32904","alt_names":[],"object_type":"PAYLOAD","status":"ACTIVE","operator":null,"country":"US","launch_date":"2025-03-13","launch_site_code":"AFETR","launch_vehicle":null,"mission":null,"orbit_class":"UNKNOWN","rcs_meters":null,"size_class":null,"mass_kg":null,"dimensions":null,"purposes":["comms"],"wikipedia_slug":null,"has_3d_model":false,"image_url":null,"decayed_at":null,"tle_current":{"epoch":"2026-09-21T16:50:38.217408Z","epoch_age_seconds":58461,"freshness":"FRESH","line1":"1 63198U 25048R   26264.70183122  .00011344  00000+0  42093-3 0  9993","line2":"2 63198  42.9997  57.9952 0000650 218.9139 141.1666 15.27595465 87076","mean_motion":15.27595465,"eccentricity":6.5e-5,"inclination_deg":42.9997,"raan_deg":57.9952,"arg_perigee_deg":218.9139,"mean_anomaly_deg":141.1666,"bstar":0.00042093,"rev_number":8707,"period_min":94.26579438032,"perigee_km":482.55681457056,"apogee_km":483.44876274308,"semimajor_km":6861.1397886568,"source":"CELESTRAK","updated_at":"2026-09-22T09:00:49.797764Z"}}}